[[{"header":{"parameterUnit":"m.s-1","parameterCategory":1,"la1":30.2992,"la2":30.254,"lo1":-89.0895,"lo2":-89.0443,"dy":0.0025,"dx":0.0025,"nx":19,"ny":19,"refTime":"2026-05-01T09:00:00:Z","depth":0,"parameterNumber":2,"parameterNumberName":"U-component_of_WINDS"},"data":[0,0,0,-0.1035,-0.104,-0.1272,-0.1273,-0.1573,-0.1576,0,0,0,0,0,0,0,0,0,0,0,-0.0963,-0.0965,-0.1034,-0.104,-0.1272,-0.1273,-0.1573,-0.1576,0,0,0,0,0,0,0,0,0,0,0,-0.0962,-0.0964,-0.0967,-0.1041,-0.1272,-0.1273,-0.1572,-0.1397,0,0,0,0,0,0,0,0,0,0,-0.1171,-0.1101,-0.0964,-0.0967,-0.1042,-0.1272,-0.1273,-0.1389,-0.1408,-0.1468,0,-0.1516,0,-0.1551,-0.1596,-0.1597,0,0,0,-0.1043,-0.1085,-0.1149,-0.0967,-0.1044,-0.1271,-0.1168,-0.1399,-0.1421,-0.1493,-0.1521,-0.1532,-0.1555,-0.1598,-0.1599,-0.1926,-0.1927,0,0,-0.1031,-0.1004,-0.1134,-0.1163,-0.1123,-0.1161,-0.1176,-0.1413,-0.1442,-0.1522,-0.1539,-0.156,-0.16,-0.1602,-0.1925,-0.1926,0,0,0,-0.0991,-0.0995,-0.1054,-0.1151,-0.1192,-0.1168,-0.1184,-0.1432,-0.1453,-0.1542,-0.1564,-0.1601,-0.1605,-0.1923,-0.1925,-0.197,0,0,0,-0.0984,-0.0972,-0.1048,-0.1035,-0.1188,-0.1314,-0.1198,-0.1436,-0.1464,-0.1562,-0.1602,-0.1608,-0.1922,-0.1924,-0.1965,-0.1997,0,0,0,-0.0949,-0.0968,-0.1,-0.1033,-0.1131,-0.1311,-0.1346,-0.1443,-0.1477,-0.1597,-0.1609,-0.1921,-0.1924,-0.1961,-0.1991,-0.2079,0,0,0,-0.0905,-0.1036,-0.1001,-0.1156,-0.1129,-0.1333,-0.1344,-0.1499,-0.1606,-0.1603,-0.1922,-0.1925,-0.196,-0.1986,-0.2074,-0.2152,-0.218,0,0,-0.1056,-0.1053,-0.1147,-0.1122,-0.1326,-0.13,-0.1513,-0.1637,-0.1674,-0.1841,-0.1849,-0.1967,-0.199,-0.2078,-0.2338,-0.2361,0,0,0,-0.1186,-0.1254,-0.1313,-0.1413,-0.1509,-0.1596,-0.169,-0.1737,-0.188,-0.1752,-0.2021,-0.2035,-0.2088,-0.2127,-0.2146,-0.2196,-0.194,-0.194,-0.1939,-0.1366,-0.1403,-0.1562,-0.1629,-0.1725,-0.1821,-0.1905,-0.1986,-0.1995,-0.2058,-0.211,-0.2263,-0.2307,-0.2321,-0.2373,-0.2149,-0.2149,-0.215,-0.215,-0.1595,-0.1699,-0.1708,-0.1866,-0.1907,-0.2041,-0.214,-0.2143,-0.2278,-0.2226,-0.2275,-0.2221,-0.2344,-0.2392,-0.2154,-0.2153,-0.2152,-0.2152,-0.2152,-0.1722,-0.1779,-0.183,-0.198,-0.2092,-0.2155,-0.2284,-0.2316,-0.2347,-0.2394,-0.2456,-0.2456,-0.2464,-0.242,-0.2421,-0.2421,-0.2422,-0.2422,-0.2422,-0.1835,-0.1892,-0.1995,-0.2108,-0.2178,-0.2274,-0.2372,-0.2443,-0.2531,-0.2545,-0.2546,-0.2554,-0.2346,-0.2297,-0.2431,-0.243,-0.2428,-0.2428,-0.2427,-0.2063,-0.2017,-0.2176,-0.2246,-0.2384,-0.2496,-0.2532,-0.2675,-0.2739,-0.2803,-0.2799,-0.2638,-0.264,-0.2625,-0.2585,-0.2786,-0.2786,-0.2786,-0.2786,-0.2175,-0.2176,-0.2348,-0.2458,-0.257,-0.262,-0.2805,-0.2883,-0.2958,-0.3001,-0.2975,-0.2922,-0.2905,-0.2917,-0.2896,-0.286,-0.3126,-0.3126,-0.3127,-0.232,-0.2334,-0.2484,-0.2552,-0.2663,-0.2759,-0.2935,-0.3066,-0.314,-0.3141,-0.3037,-0.3022,-0.2938,-0.2907,-0.2911,-0.2877,-0.2811,0,0]},{"header":{"parameterUnit":"m.s-1","parameterCategory":1,"la1":30.2992,"la2":30.254,"lo1":-89.0895,"lo2":-89.0443,"dy":0.0025,"dx":0.0025,"nx":19,"ny":19,"refTime":"2026-05-01T09:00:00:Z","depth":0,"parameterNumber":3,"parameterNumberName":"V-component_of_WINDS"},"data":[0,0,0,-4.8339,-4.8344,-4.8606,-4.8607,-4.8956,-4.896,0,0,0,0,0,0,0,0,0,0,0,-4.8271,-4.8274,-4.8338,-4.8345,-4.8606,-4.8607,-4.8956,-4.896,0,0,0,0,0,0,0,0,0,0,0,-4.827,-4.8273,-4.8277,-4.8346,-4.8606,-4.8608,-4.8955,-4.8752,0,0,0,0,0,0,0,0,0,0,-4.8495,-4.8444,-4.8273,-4.8277,-4.8348,-4.8606,-4.8608,-4.8742,-4.8765,-4.8844,0,-4.8919,0,-4.8945,-4.8984,-4.8985,0,0,0,-4.8337,-4.8425,-4.8486,-4.8277,-4.835,-4.8606,-4.8486,-4.8754,-4.878,-4.8875,-4.8924,-4.8937,-4.8951,-4.8986,-4.8988,-4.948,-4.9482,0,0,-4.8322,-4.8324,-4.8469,-4.8503,-4.8466,-4.8478,-4.8494,-4.877,-4.8824,-4.8926,-4.8945,-4.8957,-4.8989,-4.8992,-4.9477,-4.948,0,0,0,-4.8286,-4.8314,-4.8368,-4.849,-4.8536,-4.8486,-4.8505,-4.8811,-4.8829,-4.8948,-4.8961,-4.8991,-4.8995,-4.9474,-4.9478,-4.9614,0,0,0,-4.8277,-4.8293,-4.8362,-4.8366,-4.8531,-4.8677,-4.854,-4.881,-4.8841,-4.8959,-4.8991,-4.8999,-4.9471,-4.9476,-4.9604,-4.9679,0,0,0,-4.8251,-4.829,-4.8331,-4.8365,-4.8478,-4.8673,-4.8706,-4.8816,-4.8849,-4.8986,-4.9,-4.9469,-4.9475,-4.9595,-4.9664,-4.9811,0,0,0,-4.8222,-4.8447,-4.8333,-4.8589,-4.8476,-4.8755,-4.8704,-4.8911,-4.9044,-4.8993,-4.9472,-4.9478,-4.9592,-4.9655,-4.9801,-4.9936,-4.9991,0,0,-4.8506,-4.8481,-4.8631,-4.8537,-4.8837,-4.8715,-4.9034,-4.9153,-4.9163,-4.9373,-4.9385,-4.9608,-4.9663,-4.9808,-5.0299,-5.0344,0,0,0,-4.8722,-4.883,-4.8909,-4.9037,-4.9134,-4.9224,-4.9294,-4.9339,-4.9517,-4.9272,-4.9698,-4.9732,-4.9817,-4.9881,-4.9919,-4.9993,-4.9507,-4.9506,-4.9506,-4.9127,-4.913,-4.9378,-4.9413,-4.9537,-4.9608,-4.9708,-4.978,-4.9744,-4.9845,-4.9908,-5.0206,-5.0281,-5.031,-5.0387,-4.9977,-4.9978,-4.9978,-4.9979,-4.9545,-4.97,-4.9648,-4.9872,-4.9872,-5.0059,-5.0135,-5.0104,-5.0277,-5.0158,-5.0233,-5.0105,-5.0358,-5.0426,-4.9989,-4.9987,-4.9986,-4.9985,-4.9984,-4.9813,-4.9888,-4.9938,-5.0124,-5.0266,-5.0291,-5.0461,-5.0454,-5.0448,-5.0522,-5.059,-5.0587,-5.0586,-5.0554,-5.0555,-5.0557,-5.0557,-5.0558,-5.0559,-5.0073,-5.0125,-5.027,-5.0393,-5.0474,-5.058,-5.0652,-5.0732,-5.0818,-5.0799,-5.08,-5.0756,-5.0382,-5.029,-5.0575,-5.0572,-5.057,-5.0568,-5.0567,-5.0501,-5.0403,-5.0627,-5.0709,-5.0852,-5.0994,-5.0982,-5.1145,-5.1209,-5.1293,-5.1232,-5.0956,-5.0929,-5.0899,-5.0823,-5.1229,-5.1229,-5.123,-5.123,-5.0729,-5.0714,-5.0943,-5.1074,-5.1201,-5.1214,-5.1466,-5.1524,-5.1568,-5.1608,-5.1547,-5.1444,-5.1414,-5.1405,-5.1364,-5.1293,-5.181,-5.1811,-5.1811,-5.0993,-5.0991,-5.1209,-5.1252,-5.1363,-5.1458,-5.1696,-5.1847,-5.1876,-5.1835,-5.1639,-5.1615,-5.1449,-5.1394,-5.1351,-5.1288,-5.1157,0,0]}]]